COSMOS 249 DEB *, 3758

Orbit data source: Space-Track

COSMOS 249 DEB *, 3758 is space debris in LEO originally from a launch on Sun, 20 Oct 1968 UTC launched from the Tyuratam Missile And Space Complex (TTMTR). Debris objects in space refer to the collection of defunct objects orbiting the Earth. Examples of debris include non-operational satellites, rocket bodies, and fragments generated from explosions, collisions, or faulty payload assembly.

Loading next visibility...
Identifier
3758, 1968-091AV
Orbit
LEO
Country
Flag of CISCIS
Related business
Manufacturer
Unknown
Mission
Spacecraft
Bus & Motor
Unknown
Mass
Unknown
Launch date (UTC)
1968-10-20 (57 years ago)
Launch vehicle
Unknown
Launch site
Tyuratam Missile And Space Complex (TTMTR)
Object type
Payload
Rocket body
Debris
Shape & HBR
Unknown shape, 0.1 m
Radar Cross Section
Small (<0.1 m²)

Expand to show TLE details & history
Last TLE update: 1 day ago

TLE from 1 day ago
0 COSMOS 249 DEB *
1 03758U 68091AV  25286.30205150  .00000086  00000-0  19697-3 0  9995
2 03758  62.2642   0.9965 0775016  53.3046 313.6633 12.81940631582233
Epoch: 2025-10-13T07:14Z
TLE epoch observation values (Epoch: 2025-10-13T07:14:57.249Z)
Latitude
-0.00007°
Longitude
-129.84886°
Altitude
948.877 km
Speed
7.56 km/s
True Right ascension
00h 03m 59s
True Declination
0° 00' 00"
Sunlit
Object was in full shadow at epoch
Visualization orbit readout
Latitude
Unknown
Longitude
Unknown
Altitude
Unknown
Speed
Unknown
Apparent Right ascension
Unknown
Apparent Declination
Unknown
Sunlit
N/A
Visualization observer readout
Local Sidereal Time
04:40:19
Azimuth
Unknown
Elevation
Unknown
Doppler factor
Unknown
Orbital elements
Apogee altitude
1,930.273 km
Perigee altitude
735.073 km
Semi-major axis
7,710.81 km
Eccentricity
0.0775
Inclination
62.2642°
RAAN
0.9965°
Arg. of periapsis
53.3046°
True anomaly
306.79621°
Mean anomaly
313.6633°
Eccentric anomaly
310.27543°
Mean motion
3.20548 °/min
Orbital period
112.31 mins
BSTAR
0.00019697
Loading maneuver chart data...
Computing Atmospheric mass density...
Loading historical data...
Loading historical data...
Loading historical data...
Loading historical data...
Loading historical data...
Loading historical data...
Loading historical data...

Documentation

Showing up to 5 results
|